Location: Le Petit-Vavre
(46.5081°N, 1.5239°E)
Time: 16:09:59
(UTC+00:00)

Ariane Rocket - Pass Details

Date: 03 March 2021
Orbit: 759 x 771 km, 98.7° (Epoch: 18 April)

Event Time Altitude Azimuth Distance (km) Brightness Sun altitude
Exits shadow 20:22:16 37° 207° (SSW) 1,192 3.9 -27.8°
Maximum altitude 20:23:56 52° 260° (W) 957 3.7 -28.0°
Drops below altitude 10° 20:28:56 10° 336° (NNW) 2,323 6.0 -28.8°
Sets 20:31:19 0° 342° (NNW) 3,253 6.8 -29.2°
